Wind_Speed
6 10 10 7 4 12 6 13 11 10 11 6 14 24 21 23 20 21 27 26 32 33 36 35 31 34 37 38 42 43 43 36 34 24 23 24 24 25 25 23 24 32 35
3 5 8 7 5 7 10 8 10 10 7 6 16 11 17 19 21 23 22 31 25 18 19 22 24 26 27 29 31 29 25 22 23 25 25 25 24 23 23 28 33 32 30
4 7 10 8 9 8 11 11 10 5 8 8 9 11 13 12 13 24 20 19 22 26 23 24 23 24 22 19 19 20 23 25 26 25 26 27 28 30 32 31 30 30 28
6 12 12 11 10 11 10 8 7 8 7 6 9 8 7 9 14 17 16 18 17 17 18 18 18 17 19 21 24 24 25 24 24 26 29 33 31 29 30 30 29 28 26
5 8 9 9 9 5 9 8 4 5 7 4 6 6 6 7 8 10 13 15 16 16 18 19 19 19 20 22 26 25 25 25 26 28 29 29 30 30 29 27 27 24 24
9 8 9 8 5 5 7 5 5 4 3 3 3 4 3 4 6 8 10 13 14 17 18 20 24 20 22 24 24 23 24 25 26 28 29 28 29 28 26 26 24 23 21
9 10 11 10 8 8 8 7 6 5 4 4 3 2 1 1 4 6 8 10 11 12 14 16 18 20 21 21 22 23 24 25 25 26 27 26 27 25 23 22 22 19 18
10 9 8 9 9 8 7 7 6 5 4 5 4 4 3 2 3 4 5 7 8 10 12 14 15 17 18 19 20 22 24 23 23 25 25 24 23 22 19 19 20 19 19
13 13 12 10 8 6 5 5 5 4 4 4 3 2 2 3 4 5 6 7 9 10 12 14 16 16 18 21 21 22 23 20 20 22 21 21 20 20 20 19 18 18 19
12 11 10 8 7 6 6 6 4 4 3 2 2 2 3 4 5 5 7 9 11 12 13 15 16 16 17 19 21 21 22 21 20 19 18 19 19 19 19 19 18 18 18
12 13 13 13 11 10 8 7 5 4 2 1 2 3 4 5 6 6 8 11 13 14 14 14 16 17 17 19 20 20 21 21 21 19 18 17 18 18 18 18 19 20 20
13 13 13 11 10 8 6 4 5 4 5 5 6 6 7 7 8 8 10 13 15 16 16 17 18 19 20 21 21 22 22 22 22 21 19 19 19 18 18 19 20 20 21
15 14 13 11 10 10 9 9 9 9 8 8 8 8 7 9 10 11 12 15 18 19 20 19 20 20 21 21 22 22 22 21 21 22 21 20 19 20 20 19 19 20 21
16 16 15 14 13 13 12 12 12 11 10 10 9 9 10 10 12 13 14 16 18 19 20 20 21 21 22 22 22 22 21 21 21 21 20 20 20 19 19 19 19 20 20
16 16 15 15 14 13 13 13 13 12 11 11 12 13 13 14 14 15 16 17 19 20 20 21 21 22 23 23 23 22 22 21 21 21 21 20 20 19 19 19 19 20 20
13 13 13 12 13 13 13 13 14 13 14 14 15 15 16 17 18 18 18 20 22 23 24 24 23 23 23 23 22 21 20 20 20 20 20 20 19 18 18 18 18 19 19
11 12 12 13 13 13 13 13 15 16 17 17 18 17 17 18 19 21 21 25 28 26 25 26 24 24 24 24 22 21 20 19 19 19 19 19 18 17 17 17 17 16 15
10 11 11 12 13 14 15 15 17 18 19 19 19 19 18 19 20 23 27 31 31 29 28 25 25 23 24 23 22 21 20 19 18 18 18 17 16 15 14 14 13 13 14
9 8 9 12 13 15 17 18 19 20 20 21 21 20 20 20 28 29 31 32 29 26 25 24 23 22 23 22 21 20 19 19 18 17 16 15 14 13 13 13 12 12 13
3 5 8 11 16 17 19 21 22 21 22 21 21 21 22 26 32 29 30 28 25 23 22 22 20 21 22 21 20 19 19 19 18 17 15 14 13 12 12 11 10 12 15
6 6 8 12 16 19 21 22 23 23 23 22 21 22 27 30 29 29 28 23 23 19 21 21 19 21 21 20 20 19 19 18 17 15 13 12 12 11 10 10 12 14 16
9 10 11 14 17 19 21 23 24 24 23 22 22 25 30 29 28 27 24 21 18 18 19 17 19 19 19 19 19 18 17 16 14 12 11 10 10 10 10 12 13 14 15
10 12 14 17 18 20 21 23 23 23 23 24 26 27 28 28 24 24 22 18 16 17 16 17 18 18 18 18 18 17 16 14 13 11 10 10 11 11 12 13 14 15 15
11 13 16 19 20 22 21 20 19 20 21 23 23 24 24 20 23 22 18 16 15 14 16 16 16 17 17 17 16 15 14 12 12 11 11 11 12 13 14 15 16 17 17
13 16 18 19 22 21 20 19 19 19 19 19 20 19 15 20 21 17 16 13 13 14 15 15 15 16 16 16 15 14 13 12 12 12 12 13 14 15 16 17 19 19 20
16 18 18 22 22 19 17 16 16 15 15 13 12 13 16 18 15 14 11 11 12 13 14 15 15 15 15 15 14 13 13 13 13 14 14 15 16 18 19 19 20 21 20
Wind_Direction
261 244 233 224 197 193 91 120 155 167 179 198 205 206 229 208 228 215 231 241 244 252 250 249 253 255 253 254 258 263 271 274 279 276 281 284 290 285 295 287 286 294 296
316 178 207 184 160 162 145 147 174 172 171 186 192 201 221 211 218 223 251 243 248 255 265 276 273 272 276 277 278 276 272 271 277 280 283 284 289 293 279 284 292 296 299
76 143 133 146 150 170 168 174 188 210 196 179 180 196 208 211 220 224 240 241 261 261 267 269 266 267 268 269 274 275 278 279 280 285 293 297 294 287 284 288 294 297 297
120 126 136 132 124 127 137 143 152 174 161 177 185 170 177 202 210 221 223 234 243 253 259 259 261 264 264 266 271 276 280 279 278 281 280 287 288 291 293 294 295 295 293
149 135 135 131 134 127 151 147 149 143 149 142 143 164 178 193 204 213 228 236 242 251 256 263 265 275 272 264 279 286 291 289 287 288 291 292 290 292 293 295 290 290 292
144 152 156 153 151 139 163 155 135 129 159 155 141 156 179 223 237 246 252 250 256 263 267 263 266 271 277 282 285 289 287 288 289 288 288 288 290 294 293 288 288 288 287
149 144 148 154 152 153 152 147 144 148 144 134 107 88 63 292 282 279 280 273 271 275 276 279 280 278 282 287 286 286 288 286 286 288 290 291 290 290 290 286 285 288 288
172 167 160 155 156 154 146 139 126 112 91 73 61 52 31 349 304 297 296 294 291 288 286 285 286 291 291 286 287 287 286 290 292 290 289 290 290 291 289 287 287 290 288
169 168 167 167 163 151 134 120 110 98 82 70 55 32 346 321 312 313 317 313 308 306 308 302 299 299 295 293 292 291 290 289 284 283 286 288 290 289 290 288 286 284 287
170 167 163 153 145 140 133 125 112 103 96 79 54 6 348 334 330 332 330 327 323 319 315 309 308 302 295 294 294 295 294 297 289 286 287 287 286 286 286 285 285 285 283
178 172 169 171 170 169 170 172 176 185 197 224 282 303 298 303 307 316 330 332 325 319 315 313 308 308 306 301 300 300 296 295 293 291 287 285 285 286 286 286 285 283 284
186 184 184 181 183 191 204 225 251 266 274 280 286 294 297 297 299 303 320 333 334 328 322 318 317 316 315 312 310 305 302 299 296 293 291 288 285 284 283 281 282 285 289
197 199 200 202 210 221 232 239 249 257 265 272 277 281 284 289 295 300 313 329 337 335 328 322 319 317 316 314 311 308 304 299 294 292 291 290 288 287 288 289 288 288 288
206 210 213 218 224 235 245 253 259 266 270 274 284 291 299 304 305 305 306 317 326 330 328 321 319 318 317 316 314 310 306 302 299 295 292 290 288 288 288 289 291 291 291
213 219 222 227 234 242 252 263 272 280 282 285 294 300 304 306 301 301 302 306 315 322 325 322 318 318 318 317 315 313 310 305 302 299 296 294 292 292 292 293 291 290 290
222 229 235 239 246 251 257 265 270 274 277 283 287 292 297 302 305 307 308 310 312 316 319 322 319 318 319 318 316 313 311 308 305 302 299 297 294 292 291 291 289 289 291
228 230 234 239 248 254 261 264 271 273 275 278 283 290 297 301 305 307 307 306 304 303 309 314 315 316 317 316 316 314 311 309 307 304 300 297 294 293 293 292 292 292 292
239 241 247 251 257 265 267 268 271 275 276 280 286 293 299 302 305 302 295 299 309 303 299 306 309 310 312 314 315 314 313 311 308 305 300 295 293 293 293 292 291 293 296
240 249 256 266 269 271 273 274 274 276 279 283 289 292 292 294 296 295 300 313 316 311 302 308 305 306 311 315 315 316 315 312 309 304 300 296 294 292 290 289 291 294 300
255 293 286 278 283 281 278 278 279 279 280 283 285 287 288 293 304 309 314 322 316 311 302 303 301 309 315 316 315 316 315 312 308 305 302 297 292 290 289 289 291 300 306
247 272 295 295 294 290 284 281 281 282 283 285 287 288 291 295 311 319 325 316 313 307 302 304 308 314 316 314 315 318 316 311 308 304 298 294 293 292 289 289 299 307 311
266 275 286 291 291 292 288 283 282 282 284 289 289 287 295 303 313 324 316 312 308 306 309 308 311 314 314 315 317 318 315 312 311 306 296 289 288 286 287 294 301 308 312
272 284 290 290 291 292 291 287 285 286 288 288 293 297 306 307 318 316 312 311 312 314 308 309 312 313 315 317 317 319 319 318 315 308 298 291 289 289 292 296 300 305 310
282 295 296 292 291 294 294 291 288 284 282 282 288 296 306 321 315 313 312 314 313 309 309 310 312 316 317 316 319 321 323 324 324 321 314 305 300 298 298 299 300 302 305
296 305 301 296 296 296 292 290 287 285 285 283 282 294 306 311 314 312 314 312 313 310 309 312 317 319 319 321 322 321 320 320 320 317 312 306 301 299 299 299 299 300 300
305 311 307 302 298 297 295 294 289 286 284 281 275 281 294 306 309 307 304 305 304 309 317 321 322 325 327 329 329 326 323 321 318 314 311 308 306 303 302 301 300 300 299
Height
3073 3073 3073 3074 3075 3075 3078 3078 3081 3083 3088 3092 3097 3101 3104 3108 3112 3117 3123 3125 3127 3129 3131 3134 3134 3135 3136 3138 3137 3137 3138 3138 3137 3136 3136 3134 3133 3132 3132 3130 3129 3126 3123
3071 3071 3072 3074 3076 3077 3081 3082 3084 3087 3091 3094 3096 3099 3102 3105 3110 3114 3117 3119 3124 3124 3126 3127 3128 3129 3130 3131 3131 3131 3130 3131 3131 3129 3128 3127 3126 3125 3125 3123 3121 3118 3115
3073 3071 3074 3076 3077 3077 3080 3083 3086 3089 3092 3094 3096 3098 3101 3104 3108 3111 3113 3116 3118 3119 3121 3122 3123 3124 3125 3124 3125 3125 3126 3124 3124 3122 3121 3120 3119 3117 3115 3113 3112 3111 3108
3072 3073 3075 3078 3079 3082 3084 3087 3089 3091 3092 3095 3097 3099 3101 3104 3105 3109 3111 3114 3115 3117 3118 3119 3120 3119 3120 3120 3120 3119 3118 3117 3116 3115 3114 3113 3111 3110 3108 3105 3104 3102 3100
3073 3074 3076 3079 3081 3084 3085 3087 3089 3091 3093 3095 3096 3098 3100 3103 3105 3107 3110 3112 3112 3113 3114 3115 3114 3114 3114 3114 3113 3111 3110 3109 3108 3106 3105 3104 3103 3103 3102 3099 3097 3095 3093
3074 3075 3077 3080 3082 3084 3087 3089 3090 3092 3095 3096 3096 3098 3100 3102 3103 3105 3106 3107 3108 3109 3109 3110 3110 3109 3108 3107 3105 3104 3103 3102 3101 3100 3098 3097 3095 3094 3094 3093 3091 3089 3088
3074 3077 3079 3081 3083 3086 3088 3089 3091 3093 3094 3096 3096 3097 3098 3099 3100 3101 3102 3103 3103 3103 3104 3103 3104 3104 3102 3100 3099 3098 3096 3096 3095 3093 3092 3091 3088 3087 3087 3087 3086 3083 3082
3075 3077 3080 3082 3084 3086 3088 3089 3090 3092 3093 3094 3094 3096 3097 3099 3100 3100 3100 3100 3100 3100 3100 3100 3098 3097 3096 3094 3093 3091 3090 3090 3088 3085 3085 3084 3082 3081 3081 3081 3080 3078 3076
3076 3079 3081 3084 3086 3088 3090 3091 3093 3094 3095 3096 3097 3098 3100 3100 3100 3099 3098 3098 3097 3096 3095 3096 3094 3094 3092 3089 3088 3086 3084 3086 3083 3080 3080 3078 3076 3075 3075 3075 3074 3073 3072
3077 3080 3082 3085 3088 3089 3090 3092 3093 3095 3097 3098 3098 3098 3098 3098 3097 3097 3097 3096 3095 3094 3093 3092 3091 3090 3088 3085 3082 3081 3078 3078 3076 3075 3074 3072 3071 3070 3070 3070 3068 3067 3067
3078 3080 3083 3084 3087 3089 3091 3093 3095 3095 3096 3097 3097 3098 3098 3097 3097 3096 3095 3094 3092 3091 3091 3091 3088 3086 3084 3080 3077 3075 3073 3071 3069 3069 3068 3067 3066 3065 3065 3064 3063 3062 3061
3077 3079 3082 3084 3087 3089 3091 3093 3093 3094 3094 3095 3095 3096 3096 3095 3094 3094 3093 3092 3091 3089 3087 3086 3084 3081 3079 3076 3073 3070 3068 3066 3064 3063 3062 3062 3061 3060 3060 3059 3058 3055 3054
3076 3079 3081 3083 3085 3087 3089 3091 3091 3092 3093 3094 3095 3095 3095 3093 3093 3091 3090 3088 3086 3085 3083 3082 3079 3077 3074 3071 3069 3065 3063 3060 3059 3057 3057 3056 3055 3054 3053 3052 3051 3050 3048
3075 3078 3080 3083 3085 3087 3089 3090 3090 3091 3092 3092 3092 3091 3091 3090 3089 3088 3087 3085 3084 3083 3080 3077 3075 3072 3069 3066 3063 3060 3057 3055 3053 3052 3051 3050 3049 3048 3047 3046 3045 3043 3042
3073 3076 3078 3080 3082 3084 3085 3086 3087 3088 3088 3088 3088 3088 3087 3087 3087 3086 3085 3083 3081 3079 3077 3074 3071 3068 3065 3062 3058 3056 3053 3051 3049 3047 3045 3044 3043 3042 3040 3039 3039 3038 3037
3070 3073 3075 3078 3079 3080 3081 3082 3083 3084 3084 3085 3085 3085 3085 3083 3082 3081 3080 3078 3076 3074 3071 3069 3065 3062 3059 3056 3054 3051 3048 3046 3043 3042 3040 3038 3037 3036 3035 3034 3033 3032 3031
3068 3070 3072 3074 3075 3076 3078 3079 3080 3081 3081 3081 3080 3081 3079 3078 3077 3076 3074 3073 3071 3068 3066 3064 3061 3057 3054 3051 3048 3046 3043 3041 3039 3037 3036 3034 3032 3031 3030 3029 3028 3027 3026
3065 3068 3070 3071 3072 3073 3074 3076 3075 3076 3076 3076 3075 3075 3075 3074 3073 3072 3070 3068 3066 3063 3061 3059 3056 3053 3051 3047 3044 3042 3039 3037 3034 3033 3031 3030 3028 3027 3026 3025 3024 3023 3022
3063 3065 3066 3067 3069 3069 3070 3071 3071 3070 3071 3071 3070 3070 3069 3068 3067 3066 3064 3061 3060 3058 3055 3053 3051 3049 3046 3043 3040 3037 3035 3032 3030 3028 3026 3025 3023 3022 3022 3021 3021 3020 3018
3060 3062 3063 3063 3063 3064 3065 3065 3065 3066 3066 3066 3066 3065 3064 3064 3062 3060 3057 3056 3054 3051 3050 3048 3046 3044 3041 3039 3036 3033 3030 3028 3025 3023 3021 3021 3020 3019 3019 3018 3018 3017 3015
3056 3057 3058 3058 3058 3059 3059 3059 3059 3060 3060 3061 3061 3060 3060 3058 3056 3054 3053 3050 3048 3046 3045 3042 3041 3039 3037 3034 3031 3028 3026 3023 3021 3019 3018 3017 3016 3016 3015 3015 3014 3013 3011
3053 3054 3054 3055 3054 3054 3054 3054 3054 3054 3055 3056 3056 3054 3053 3052 3051 3050 3047 3044 3042 3041 3040 3039 3037 3034 3032 3029 3027 3024 3022 3019 3017 3015 3014 3013 3013 3012 3012 3011 3010 3008 3007
3050 3050 3050 3050 3049 3049 3048 3048 3048 3049 3050 3050 3050 3049 3048 3047 3046 3044 3042 3040 3039 3037 3036 3035 3032 3030 3027 3025 3022 3020 3018 3015 3013 3012 3011 3010 3010 3009 3008 3008 3007 3005 3003
3046 3046 3046 3044 3044 3044 3043 3043 3043 3043 3044 3044 3044 3044 3044 3043 3041 3039 3038 3036 3035 3034 3033 3031 3028 3026 3024 3022 3019 3017 3015 3013 3012 3010 3009 3009 3008 3007 3006 3004 3003 3001 2999
3041 3041 3040 3039 3038 3038 3037 3037 3037 3037 3038 3039 3039 3040 3040 3039 3038 3036 3035 3034 3032 3031 3029 3027 3025 3024 3022 3019 3017 3015 3013 3011 3009 3008 3006 3005 3004 3002 3001 3000 2999 2997 2995
3037 3036 3035 3034 3033 3033 3033 3033 3033 3033 3034 3035 3035 3036 3036 3035 3034 3033 3032 3030 3029 3028 3027 3025 3023 3022 3020 3017 3015 3012 3010 3008 3007 3005 3004 3002 3001 2999 2997 2995 2993 2991 2989